Location: Rounton
(54.4000°N, 1.3500°W)
Time: 08:04:05
(UTC+01:00)

deb Agena D - Pass Details

Date: 19 June 2023
Orbit: 996 x 1023 km, 100.1° (Epoch: 29 September)

Event Time Altitude Azimuth Distance (km) Brightness Sun altitude
Exits shadow 02:25:02 12° 211° (SSW) 2,598 ? -10.4°
Maximum altitude 02:29:48 29° 267° (W) 1,736 ? -10.2°
Drops below altitude 10° 02:35:09 10° 326° (NW) 2,777 ? -9.9°
Sets 02:38:01 0° 338° (NNW) 3,731 ? -9.7°
